Regional Weather Roundup
Issued by NWS State College, PA

Home | Current Version | Previous Version | Graphics & Text | Print | Product List | Glossary On
Versions: 1 2 3 4 5 6 7 8 9 10 11 12 13 14 15 16 17 18 19 20 21 22 23 24 25 26 27 28 29 30 31 32 33 34 35 36 37 38 39 40 41 42 43 44 45 46 47 48 49 50
000
ASUS41 KCTP 232203
RWRCTP

REGIONAL WEATHER ROUNDUP
NATIONAL WEATHER SERVICE STATE COLLEGE PA
500 PM EST THU FEB 23 2017

Note: "fair" indicates few or no clouds below 12,000 feet with no
significant weather and/or obstructions to visibility.

* = STATION THAT DOES NOT REPORT PRECIPITATION /E.G. RAIN...SNOW...ETC/
    THUNDER OR FOG.

PAZ002>004-007>009-013>016-020>023-029>032-232300-
WESTERN PENNSYLVANIA

CITY           SKY/WX    TMP DP  RH WIND       PRES   REMARKS
ERIE           MOSUNNY   58  50  75 W10       29.79R
MEADVILLE      MOSUNNY   64  51  62 W9        29.78R
FRANKLIN*      PTSUNNY   64  52  63 W9        29.80R
NEW CASTLE     FAIR      68  54  60 SW7       29.79R
BEAVER COUNTY  PTSUNNY   66  54  63 SW5       29.79S
BUTLER*        MOSUNNY   66  54  63 SW5       29.81R
PITTSBURGH INT PTSUNNY   68  54  60 SW6       29.79S
PITTSBURGH     PTSUNNY   67  51  56 SW12      29.80R
INDIANA*       CLOUDY    64  55  72 NW3       29.84R
LATROBE        MOSUNNY   66  54  63 SW12      29.82R
WASHINGTON CO* PTSUNNY   66  52  59 SW9       29.83R
$$

PAZ004>006-010>012-017>019-024>028-033>037-041-042-045-046-049>053-232300-
CENTRAL PENNSYLVANIA

CITY           SKY/WX    TMP DP  RH WIND       PRES   REMARKS
BRADFORD       MOCLDY    60  52  74 VRB3      29.80S
DUBOIS         PTCLDY    62  51  67 W10       29.80S
CLEARFIELD       N/A    N/A N/A N/A MISG      29.81R
JOHNSTOWN      CLOUDY    63  51  65 W12       29.83R
ALTOONA        CLOUDY    70  52  52 SW17G24   29.81R
STATE COLLEGE  PTCLDY    70  52  52 W13G20    29.79R
WILLIAMSPORT   PTCLDY    67  48  50 CALM      29.77R
SELINSGROVE    PTCLDY    69  54  58 S5        29.77R
FT INDIANTOWN  PTCLDY    68  55  61 VRB3      29.79R
CAPITAL CITY   CLOUDY    75  50  41 SW9       29.78R
HARRISBURG     CLOUDY    72  51  47 VRB3      29.77R
YORK           CLEAR     73  51  46 SW6       29.79R
$$

PAZ038>040-043-044-047-048-054-055-060>062-067>071-232300-
EASTERN PENNSYLVANIA

CITY           SKY/WX    TMP DP  RH WIND       PRES   REMARKS
SCRANTON       MOCLDY    69  51  52 W10       29.79R
MOUNT POCONO   CLEAR     62  51  67 W7        29.82R
ALLENTOWN      CLEAR     71  52  50 SW9       29.79R
QUAKERTOWN*    PTCLDY    70  54  56 S6        29.81R
READING        CLEAR     71  55  56 S10       29.78R
LANCASTER      CLEAR     71  55  56 S9        29.79R
COATESVILLE    CLEAR     68  54  60 S9G17     29.82F
POTTSTOWN      CLEAR     70  50  49 SW5       29.82R
BLUE BELL      CLEAR     68  52  56 S10       29.80S
DOYLESTOWN     CLEAR     70  53  54 VRB6      29.80R
WILLOW GROVE   NOT AVBL
NORTH PHILA    CLEAR     72  53  51 S7        29.83S
PHILADELPHIA   PTCLDY    72  52  49 SW15      29.83R
$$




USA.gov is the U.S. government's official web portal to all federal, state and local government web resources and services.